Погода в Васильеве

Россия / Санкт-Петербург и Ленинградская область     60°51′43″N   29°49′05″E
темп.,
°C
ветер,
м/с
пор.,
м/с
влажн.,
%
обл.,
%
осадки,
мм/ч
давл.,
гПа
погр.,
м
25 февраля, чт
чт2500:00+2зюз512100100 0.6 1008509
03:00+2зюз41299100 0.6 1008371
06:00+2з41099100 0.0 1008345
09:00+1зюз3910099 0.0 1009303
12:00+2зюз3910085 0.0 1010413
15:00+2зюз3910093 0.0 1010315
18:00+1юз3899100 0.1 1008258
21:00+2зюз3899100 0.1 1007253
26 февраля, пт
пт2600:00+1юз3899100 0.3 1005246
03:00+1юз3899100 2.4 1002246
06:00+2зюз41099100 5.0 998342
09:00+2з41199100 6.7 997392
12:00+1сз410100100 0.8 999573
15:00+2з31099100 0.8 1001510
18:00+2зюз31097100 0.0 1001475
21:00+1зсз2997100 0.0 1002420
27 февраля, сб
сб2700:00+1сз2796100 0.0 1003359
03:00+1сз3995100 0.1 1006533
06:00−1ссз4109188 0.0 1007564
09:00−1ссз4109094 0.0 1011875
12:000ссз51084100 0.1 10131058
15:00−1ссз51082100 0.1 1016913
18:00−1с41086100 0.0 1017722
21:00−1с398699 0.0 1020677
28 февраля, вс
вс2800:00−5сз389668 0.0 1021244
03:00−6сз259637 0.0 1022111
06:00−7зсз22960 0.0 102338
09:00−6з129646 0.0 102359
12:00−3зюз2488100 0.0 1023237
15:00−1зюз3784100 0.0 1022436
18:00−1зюз3797100 0.6 1022306
21:000зсз2897100 0.6 1023327
1 марта, пн
пн100:000з2296100 0.0 102389
03:00−2зюз269782 0.0 1024145
06:00+1з389685 0.0 1023344
09:000з499592 0.0 1022392
12:00+1з41194100 0.0 1022487
15:00+3з51287100 0.0 1020644
18:00+2зюз51290100 0.0 1018404
21:00+2з5168789 0.0 1016712